カタログに戻る

FENGYUN 1C DEB *

運用中PO
NORAD 47005·DEBRIS·🇨🇳 China

打ち上げ May 10, 1999 から Taiyuan Satellite Launch Center

Loading…

次のパス (今後24時間)

TLE

経年Source: Space-Track

元期: Sep 7, 2026, 13:49 UTC

1 47005U 99025FAF 26250.57611354  .00002701  00000-0  14452-2 0  9996
2 47005  99.6000   3.3826 0062235 216.6202 156.9904 14.13111906865629

AllMySatでFENGYUN 1C DEB *をリアルタイム追跡

Download on the App Store